Weather History for KRBD - May, 2014

Change the Weather History Date:

Sunday, May 4, 2014

  Actual Average Record
Temperature  
Mean Temperature 78 °F -  
Max Temperature 93 °F 79 °F 93 °F (2014)
Min Temperature 64 °F 60 °F 45 °F (2013)
Cooling Degree Days 14    
Growing Degree Days 28 (Base 50)    
Moisture  
Dew Point 41 °F    
Average Humidity 29    
Maximum Humidity 47    
Minimum Humidity 13    
Precipitation  
Precipitation 0.00 in - - ()
Sea Level Pressure  
Sea Level Pressure 29.95 in    
Wind  
Wind Speed 8 mph (South)    
Max Wind Speed 17 mph    
Max Gust Speed 26 mph    
Visibility 10 miles    
Events      
Averages and records for this station are not official NWS values.
T = Trace of Precipitation, MM = Missing Value Source: NWS Daily Summary

Daily Weather History Graph

Daily Weather History Graph

Search for Another Location

Airport or City:

Trip Planner

Search our weather history database for the weather conditions in past years. The results will help you decide how hot, cold, wet, or windy it might be!

Date:

Astronomy

May. 04, 2014 Rise Set
Actual Time 6:37 AM CDT 8:11 PM CDT
Civil Twilight 6:11 AM CDT 8:37 PM CDT
Nautical Twilight 5:39 AM CDT 9:09 PM CDT
Astronomical Twilight 5:06 AM CDT 9:42 PM CDT
Moon 11:03 AM CDT (5/4) 12:15 AM CDT (5/4)
Length of Visible Light 14h 26m
Length of Day
13h 33m
Waxing Crescent, 28% of the Moon is Illuminated
May 4
Waxing Crescent
May 6
First Quarter
May 14
Full
May 21
Last Quarter
May 28
New

Hourly Weather History & Observations

Time (CDT) Temp. Dew Point Humidity Pressure Visibility Wind Dir Wind Speed Gust Speed Precip Events Conditions
12:53 AM 72.0 °F 44.1 °F 37% 29.98 in 10.0 mi South 9.2 mph - N/A   Clear
1:53 AM 70.0 °F 44.1 °F 39% 29.96 in 10.0 mi South 5.8 mph - N/A   Clear
2:53 AM 68.0 °F 42.1 °F 39% 29.94 in 10.0 mi South 6.9 mph - N/A   Clear
3:53 AM 66.9 °F 41.0 °F 39% 29.94 in 10.0 mi South 5.8 mph - N/A   Clear
4:53 AM 66.0 °F 39.9 °F 38% 29.95 in 10.0 mi South 5.8 mph - N/A   Clear
5:53 AM 66.9 °F 39.0 °F 36% 29.96 in 10.0 mi South 5.8 mph - N/A   Clear
6:53 AM 64.0 °F 39.0 °F 40% 29.98 in 10.0 mi SSE 4.6 mph - N/A   Clear
7:53 AM 64.9 °F 44.1 °F 47% 30.00 in 10.0 mi SE 4.6 mph - N/A   Clear
8:53 AM 72.0 °F 42.1 °F 34% 30.01 in 10.0 mi Variable 6.9 mph - N/A   Clear
9:53 AM 78.1 °F 39.0 °F 25% 30.00 in 10.0 mi SSW 10.4 mph 21.9 mph N/A   Clear
10:53 AM 81.0 °F 42.1 °F 25% 30.01 in 10.0 mi Variable 6.9 mph - N/A   Clear
11:53 AM 86.0 °F 45.0 °F 24% 30.00 in 10.0 mi SSW 8.1 mph - N/A   Clear
12:53 PM 89.1 °F 45.0 °F 22% 29.98 in 10.0 mi Variable 5.8 mph - N/A   Clear
1:53 PM 91.0 °F 39.9 °F 17% 29.95 in 10.0 mi South 11.5 mph 23.0 mph N/A   Clear
2:53 PM 93.0 °F 37.9 °F 15% 29.94 in 10.0 mi South 13.8 mph 25.3 mph N/A   Clear
3:53 PM 93.0 °F 35.1 °F 13% 29.91 in 10.0 mi South 15.0 mph 23.0 mph N/A   Clear
4:53 PM 91.9 °F 39.0 °F 16% 29.90 in 10.0 mi South 11.5 mph 19.6 mph N/A   Clear
5:53 PM 90.0 °F 37.9 °F 16% 29.89 in 10.0 mi South 17.3 mph 26.5 mph N/A   Clear
6:53 PM 88.0 °F 37.0 °F 16% 29.89 in 10.0 mi South 11.5 mph 24.2 mph N/A   Clear
7:53 PM 84.9 °F 39.0 °F 20% 29.89 in 10.0 mi South 10.4 mph 18.4 mph N/A   Clear
8:53 PM 80.1 °F 43.0 °F 27% 29.90 in 10.0 mi SSE 10.4 mph 16.1 mph N/A   Clear
9:53 PM 78.1 °F 44.1 °F 30% 29.91 in 10.0 mi SSE 10.4 mph - N/A   Clear
10:53 PM 75.0 °F 45.0 °F 34% 29.91 in 10.0 mi SSE 8.1 mph 18.4 mph N/A   Clear
11:53 PM 73.9 °F 45.0 °F 35% 29.91 in 10.0 mi South 9.2 mph 20.7 mph N/A   Clear